Content
SEND FEEDBACK

Daily
Averages
Monthly
Summary
Canada

VICTORIA, BRITISH COLUMBIA


Home > North America > Canada > British Columbia
Elevation: 62 feet     Latitude: 48 39N     Longitude: 123 26W

WEATHER
 
SELECT A DAY
Number of Records: 195,041;   Date Range: 1/1/95 - 7/11/14
 
SHARE

PRINT THIS DATA

[ ← Previous Day ]
WEATHER ALMANAC - JANUARY 10, 2013
[ Next Day → ]
[ °C ]   °F
Weather ElementAverageHighLow
Temperature36.5 °F42.8 °F (2:00 pm)32 °F (1:00 am)
Dewpoint27.7 °F33 °F (10:00 am) (7:00 pm)
Humidity76.3 %94 % (4:00 am)50 % (4:00 pm)
Barometer28.00 in30.16 in (11:00 pm) (7:00 pm)
Wind Speed6.9 mph15 mph (1:00 pm)
Weather ElementAverage
Visibility29.4 mi
Wind DirectionWNW (296.9 °)

Weather ElementTotal
Precipitation---
Heating Degree Days27.6 (Base 65)
Averaged from 29 records on January 10, 2013
WEATHER CONDITIONS BREAKOUT
WIND DIRECTION BREAKOUT
WEATHER BY HOUR - JANUARY 10, 2013
[ °C ]   °F
Local TimeTemperatureDewpointHumidityBarometerVisibilityWind DirectionWind SpeedGust SpeedPrecipitationEventsConditions
1:00 AM32.0 °F30.2 °F93 %29.94 in30.0 miWNW (290°)5.8 mphPartly Cloudy
2:00 AM32.0 °F30.2 °F93 %29.97 in30.0 miWSW (240°)3.5 mphMostly Cloudy
3:00 AM32.0 °F30.2 °F93 %29.99 in30.0 miWest (270°)4.6 mphScattered Clouds
4:00 AM33.0 °F32.0 °F94 %29.99 in28.0 miWSW (250°)6.9 mphMostly Cloudy
4:00 AM33.8 °F32.0 °F93 %29.99 in30.0 miWSW (250°)6.9 mphMostly Cloudy
5:00 AM35.6 °F32.0 °F87 %30.01 in30.0 miWSW (250°)4.6 mphOvercast
6:00 AM33.8 °F32.0 °F93 %30.01 in30.0 miWSW (240°)4.6 mphMostly Cloudy
7:00 AM32.0 °F30.2 °F93 %30.04 in30.0 miWest (260°)5.8 mphMostly Cloudy
8:00 AM35.6 °F32.0 °F87 %30.06 in30.0 miWest (280°)6.9 mphMostly Cloudy
9:00 AM33.8 °F32.0 °F93 %30.08 in30.0 miWest (280°)4.6 mphMostly Cloudy
10:00 AM36.0 °F33.0 °F82 %30.09 in28.0 miWest (270°)6.9 mphMostly Cloudy
10:00 AM35.6 °F32.0 °F87 %30.09 in30.0 miWest (270°)6.9 mphMostly Cloudy
11:00 AM39.2 °F30.2 °F70 %30.10 in30.0 miNW (310°)9.2 mphMostly Cloudy
12:00 PM41.0 °F30.2 °F65 %30.09 in30.0 miNW (320°)8.1 mphMostly Cloudy
1:00 PM41.0 °F28.4 °F61 %30.08 in30.0 miNW (310°)15.0 mphScattered Clouds
2:00 PM42.8 °F28.4 °F57 %30.08 in30.0 miNW (320°)9.2 mphScattered Clouds
3:00 PM42.8 °F28.4 °F57 %30.09 in30.0 miNorth (360°)10.4 mphMostly Cloudy
4:00 PM39.0 °F27.0 °F50 %30.10 in28.0 miNNW (340°)6.9 mphScattered Clouds
4:00 PM39.2 °F26.6 °F61 %30.10 in30.0 miNNW (340°)6.9 mphPartly Cloudy
5:00 PM39.2 °F28.4 °F65 %30.11 in30.0 miNW (310°)11.5 mphPartly Cloudy
6:00 PM39.2 °F26.6 °F61 %30.12 in30.0 miNNW (340°)9.2 mphScattered Clouds
7:00 PM39.2 °F28.4 °F65 %30.12 in30.0 miNW (310°)8.1 mphMostly Cloudy
7:31 PM35.6 °F0.0 °F30.0 miWest (270°)5.8 mphMostly Cloudy
8:00 PM35.6 °F28.4 °F75 %30.13 in30.0 miNW (310°)5.8 mphScattered Clouds
9:00 PM37.4 °F28.4 °F70 %30.14 in30.0 miNW (310°)9.2 mphPartly Cloudy
10:00 PM36.0 °F28.0 °F64 %30.15 in28.0 miNorth (350°)4.6 mphMostly Cloudy
10:00 PM35.6 °F28.4 °F75 %30.15 in30.0 miNNW (340°)3.5 mphMostly Cloudy
10:30 PM35.6 °F0.0 °F20.0 miNW (310°)4.6 mphSnowLight Snow
11:00 PM35.6 °F28.4 °F75 %30.16 in30.0 miNW (310°)3.5 mphScattered Clouds
Hourly data recorded from CYYJ, located miles away from Victoria, British Columbia







STORIES FROM OUR PARTNERS